(39) Laetitia
ephemeris date magn radius delta ra dec elong phase
Today20 Jul 202511.52.682 AU3.588 AU06h22m+16°04'22.9°8.5°
Opposition27 Jan 202610.02.898 AU1.919 AU08h31m+10°51'172.2°2.6°
(39) Laetitia - 2025-07-20
astro.vanbuitenen.nl


 
-1 year
-1 month
-1 day
Now
+1 day
+1 month
+1 year

The interactive orbit chart above shows the body's path through the solar system and its position at the given date. Green and blue lines are shown perpendicular to the ecliptic plane: Green if the path is above the ecliptic plane, blue if it is below. (Left-click and drag to rotate the view; Right-click and drag to move the view; Use scroll wheel to zoom in our out.)

The orbital elements of Laetitia are:

            e (Eccentricity)                : 0.1124359
            a (Semimajor axis)              : 2.7699264
            i (Inclination)                 : 10.36979
            Ω (Longitude of ascending node) : 156.90359
            ω (Argument of perihelion)      : 210.11594
            M (Mean anomaly)                : 51.11973
            Epoch                           : 2025 May 05

            L (Longitude of perihelion)     : 186.61169
            B (Latitude of perihelion)      : -5.18176
            P (Orbital period in years)     : 4.61            
        

The light curve chart below shows the estimated development of the minor planet's magnitude.


The all-sky chart below shows the path of the minor planet over the same period as the light curve. The current position is marked yellow.





The following chart shows the path of the minor planet in the next few days. The field of view is optimized for (~10x50) binoculars and finderscopes. A more printer-friendly version of the same chart can be found below.




Ephemerides:
Date       Time       RA (2000)    DEC (2000)    delta   radius  elong  phase   PA    magn
2025-07-20 00:00 UT   06 22 12.0   +16 04 12     3.588    2.682   22.9    8.5   255   11.5 
2025-07-20 06:15 UT   06 22 38.9   +16 03 57     3.587    2.682   23.1    8.5   255   11.5 
2025-07-21 00:00 UT   06 23 55.5   +16 03 11     3.584    2.683   23.5    8.7   255   11.5 
2025-07-22 00:00 UT   06 25 38.7   +16 02 06     3.581    2.684   24.0    8.8   256   11.5 
2025-07-23 00:00 UT   06 27 21.8   +16 00 56     3.577    2.685   24.5    9.0   256   11.5 
2025-07-24 00:00 UT   06 29 04.6   +15 59 41     3.573    2.686   25.0    9.2   257   11.5 
2025-07-25 00:00 UT   06 30 47.2   +15 58 21     3.568    2.687   25.5    9.4   258   11.5 
2025-07-26 00:00 UT   06 32 29.5   +15 56 57     3.564    2.689   26.0    9.5   258   11.5 
2025-07-27 00:00 UT   06 34 11.6   +15 55 28     3.560    2.690   26.5    9.7   259   11.5 
2025-07-28 00:00 UT   06 35 53.5   +15 53 55     3.555    2.691   27.1    9.9   259   11.5 
2025-07-29 00:00 UT   06 37 35.1   +15 52 16     3.551    2.692   27.6   10.1   260   11.5 
2025-07-30 00:00 UT   06 39 16.4   +15 50 34     3.546    2.693   28.1   10.2   260   11.5 
2025-07-31 00:00 UT   06 40 57.5   +15 48 47     3.541    2.694   28.6   10.4   261   11.5 
2025-08-01 00:00 UT   06 42 38.2   +15 46 55     3.536    2.696   29.2   10.6   261   11.5 
2025-08-02 00:00 UT   06 44 18.7   +15 44 59     3.531    2.697   29.7   10.7   261   11.5 
2025-08-03 00:00 UT   06 45 58.9   +15 42 59     3.526    2.698   30.2   10.9   262   11.5 
2025-08-04 00:00 UT   06 47 38.9   +15 40 54     3.520    2.699   30.8   11.1   262   11.5 
2025-08-05 00:00 UT   06 49 18.5   +15 38 45     3.515    2.700   31.3   11.3   263   11.6 
2025-08-06 00:00 UT   06 50 57.8   +15 36 32     3.509    2.701   31.8   11.4   263   11.6 
2025-08-07 00:00 UT   06 52 36.9   +15 34 14     3.504    2.703   32.4   11.6   264   11.6 
2025-08-08 00:00 UT   06 54 15.6   +15 31 53     3.498    2.704   32.9   11.8   264   11.6 
2025-08-09 00:00 UT   06 55 54.0   +15 29 27     3.492    2.705   33.5   11.9   264   11.6 


    Terminology:
            
    delta:  distance between minor planet and earth in AU
    radius: distance between minor planet and sun in AU
    magn:   magnitude (brightness) estimate    
    ra:     right ascension in hours (24h = 360deg)
    dec:    declination in degrees
    elong:  elongation in degrees (angle sun-earth-minor planet)    
    phase:  phase angle in degrees (angle sun-minor planet-earth)        
    AU:     Astronomical Unit (mean distance between earth and sun: 149597870.7 km
    

Orbital elements provided by the MPC (Minor Planet Center).
Calculations by a modified version of AAPlus, a C# implementation of the AA+ project by PJ Naughter from the algorithms presented in the book "Astronomical Algorithms" by Jean Meeus.
NGC2000 dso catalog and star labels from VizieR as provided by the Strasbourg astronomical Data Center.
Tycho2 catalog from the ESO archive.